Time,TemperatureF,DewpointF,PressureIn,WindDirection,WindDirectionDegrees,WindSpeedMPH,WindSpeedGustMPH,Humidity,HourlyPrecipIn,Conditions,Clouds,dailyrainin,SoftwareType,DateUTC
2013-11-29 00:00:00,29.0,-99.9,-100.00,South,184,0.0,1.0,-999,-99.99,,,-99.99,,2013-11-29 08:00:00,
2013-11-29 00:42:00,29.0,-99.9,-100.00,South,184,0.0,1.0,-999,-99.99,,,-99.99,,2013-11-29 08:42:00,
2013-11-29 00:53:00,29.0,-99.9,-100.00,South,184,0.0,1.0,-999,-99.99,,,-99.99,,2013-11-29 08:53:00,
2013-11-29 01:00:00,30.0,-99.9,-100.00,WSW,244,2.0,3.0,-999,-99.99,,,-99.99,,2013-11-29 09:00:00,
2013-11-29 01:43:00,30.0,-99.9,-100.00,WSW,244,2.0,3.0,-999,-99.99,,,-99.99,,2013-11-29 09:43:00,
2013-11-29 01:53:00,30.0,-99.9,-100.00,WSW,244,2.0,3.0,-999,-99.99,,,-99.99,,2013-11-29 09:53:00,
2013-11-29 02:00:00,31.0,-99.9,-100.00,SW,230,0.0,4.0,-999,-99.99,,,-99.99,,2013-11-29 10:00:00,
2013-11-29 02:43:00,31.0,-99.9,-100.00,SW,230,0.0,4.0,-999,-99.99,,,-99.99,,2013-11-29 10:43:00,
2013-11-29 02:52:00,31.0,-99.9,-100.00,SW,230,0.0,4.0,-999,-99.99,,,-99.99,,2013-11-29 10:52:00,
2013-11-29 03:00:00,29.0,-99.9,-100.00,South,185,1.0,2.0,-999,-99.99,,,-99.99,,2013-11-29 11:00:00,
2013-11-29 03:52:00,29.0,-99.9,-100.00,South,185,1.0,2.0,-999,-99.99,,,-99.99,,2013-11-29 11:52:00,
2013-11-29 04:00:00,30.0,-99.9,-100.00,SSW,199,0.0,1.0,-999,-99.99,,,-99.99,,2013-11-29 12:00:00,
2013-11-29 04:42:00,30.0,-99.9,-100.00,SSW,199,0.0,1.0,-999,-99.99,,,-99.99,,2013-11-29 12:42:00,
2013-11-29 04:52:00,30.0,-99.9,-100.00,SSW,199,0.0,1.0,-999,-99.99,,,-99.99,,2013-11-29 12:52:00,
2013-11-29 05:00:00,31.0,-99.9,-100.00,South,183,0.0,0.0,-999,-99.99,,,-99.99,,2013-11-29 13:00:00,
2013-11-29 05:42:00,31.0,-99.9,-100.00,South,183,0.0,0.0,-999,-99.99,,,-99.99,,2013-11-29 13:42:00,
2013-11-29 05:52:00,31.0,-99.9,-100.00,South,183,0.0,0.0,-999,-99.99,,,-99.99,,2013-11-29 13:52:00,
2013-11-29 06:00:00,23.0,-99.9,-100.00,SSE,157,1.0,2.0,-999,-99.99,,,-99.99,,2013-11-29 14:00:00,
2013-11-29 06:42:00,23.0,-99.9,-100.00,SSE,157,1.0,2.0,-999,-99.99,,,-99.99,,2013-11-29 14:42:00,
2013-11-29 06:52:00,23.0,-99.9,-100.00,SSE,157,1.0,2.0,-999,-99.99,,,-99.99,,2013-11-29 14:52:00,
2013-11-29 07:00:00,29.0,-99.9,-100.00,West,274,1.0,3.0,-999,-99.99,,,-99.99,,2013-11-29 15:00:00,
2013-11-29 07:43:00,29.0,-99.9,-100.00,West,274,1.0,3.0,-999,-99.99,,,-99.99,,2013-11-29 15:43:00,
2013-11-29 07:54:00,29.0,-99.9,-100.00,West,274,1.0,3.0,-999,-99.99,,,-99.99,,2013-11-29 15:54:00,
2013-11-29 08:00:00,29.0,-99.9,-100.00,West,272,4.0,5.0,-999,-99.99,,,-99.99,,2013-11-29 16:00:00,
2013-11-29 08:43:00,29.0,-99.9,-100.00,West,272,4.0,5.0,-999,-99.99,,,-99.99,,2013-11-29 16:43:00,
2013-11-29 08:53:00,29.0,-99.9,-100.00,West,272,4.0,5.0,-999,-99.99,,,-99.99,,2013-11-29 16:53:00,
2013-11-29 09:00:00,30.0,-99.9,-100.00,WNW,285,5.0,7.0,-999,-99.99,,,-99.99,,2013-11-29 17:00:00,
2013-11-29 09:43:00,30.0,-99.9,-100.00,WNW,285,5.0,7.0,-999,-99.99,,,-99.99,,2013-11-29 17:43:00,
2013-11-29 09:52:00,30.0,-99.9,-100.00,WNW,285,5.0,7.0,-999,-99.99,,,-99.99,,2013-11-29 17:52:00,
2013-11-29 10:00:00,33.0,-99.9,-100.00,SW,226,2.0,2.0,-999,-99.99,,,-99.99,,2013-11-29 18:00:00,
2013-11-29 10:42:00,33.0,-99.9,-100.00,SW,226,2.0,2.0,-999,-99.99,,,-99.99,,2013-11-29 18:42:00,
2013-11-29 10:52:00,33.0,-99.9,-100.00,SW,226,2.0,2.0,-999,-99.99,,,-99.99,,2013-11-29 18:52:00,
2013-11-29 11:00:00,32.0,-99.9,-100.00,ENE,78,1.0,6.0,-999,-99.99,,,-99.99,,2013-11-29 19:00:00,
2013-11-29 11:42:00,32.0,-99.9,-100.00,ENE,78,1.0,6.0,-999,-99.99,,,-99.99,,2013-11-29 19:42:00,
2013-11-29 11:52:00,32.0,-99.9,-100.00,ENE,78,1.0,6.0,-999,-99.99,,,-99.99,,2013-11-29 19:52:00,
2013-11-29 12:00:00,36.0,-99.9,-100.00,NE,50,1.0,3.0,-999,-99.99,,,-99.99,,2013-11-29 20:00:00,
2013-11-29 12:42:00,36.0,-99.9,-100.00,NE,50,1.0,3.0,-999,-99.99,,,-99.99,,2013-11-29 20:42:00,
2013-11-29 12:52:00,36.0,-99.9,-100.00,NE,50,1.0,3.0,-999,-99.99,,,-99.99,,2013-11-29 20:52:00,
2013-11-29 13:00:00,37.0,-99.9,-100.00,NNE,29,1.0,4.0,-999,-99.99,,,-99.99,,2013-11-29 21:00:00,
2013-11-29 13:43:00,37.0,-99.9,-100.00,NNE,29,1.0,4.0,-999,-99.99,,,-99.99,,2013-11-29 21:43:00,
2013-11-29 13:53:00,37.0,-99.9,-100.00,NNE,29,1.0,4.0,-999,-99.99,,,-99.99,,2013-11-29 21:53:00,
2013-11-29 14:00:00,38.0,-99.9,-100.00,West,266,1.0,3.0,-999,-99.99,,,-99.99,,2013-11-29 22:00:00,
2013-11-29 14:43:00,38.0,-99.9,-100.00,West,266,1.0,3.0,-999,-99.99,,,-99.99,,2013-11-29 22:43:00,
2013-11-29 14:53:00,38.0,-99.9,-100.00,West,266,1.0,3.0,-999,-99.99,,,-99.99,,2013-11-29 22:53:00,
2013-11-29 15:00:00,39.0,-99.9,-100.00,SW,232,1.0,2.0,-999,-99.99,,,-99.99,,2013-11-29 23:00:00,
2013-11-29 15:42:00,39.0,-99.9,-100.00,SW,232,1.0,2.0,-999,-99.99,,,-99.99,,2013-11-29 23:42:00,
2013-11-29 15:52:00,39.0,-99.9,-100.00,SW,232,1.0,2.0,-999,-99.99,,,-99.99,,2013-11-29 23:52:00,
2013-11-29 16:00:00,39.0,-99.9,-100.00,WSW,238,0.0,2.0,-999,-99.99,,,-99.99,,2013-11-30 00:00:00,
2013-11-29 16:42:00,39.0,-99.9,-100.00,WSW,238,0.0,2.0,-999,-99.99,,,-99.99,,2013-11-30 00:42:00,
2013-11-29 16:52:00,39.0,-99.9,-100.00,WSW,238,0.0,2.0,-999,-99.99,,,-99.99,,2013-11-30 00:52:00,
2013-11-29 17:00:00,36.0,-99.9,-100.00,SE,137,1.0,2.0,-999,-99.99,,,-99.99,,2013-11-30 01:00:00,
2013-11-29 17:42:00,36.0,-99.9,-100.00,SE,137,1.0,2.0,-999,-99.99,,,-99.99,,2013-11-30 01:42:00,
2013-11-29 17:52:00,36.0,-99.9,-100.00,SE,137,1.0,2.0,-999,-99.99,,,-99.99,,2013-11-30 01:52:00,
2013-11-29 19:00:00,37.0,-99.9,-100.00,SSE,148,1.0,1.0,-999,-99.99,,,-99.99,,2013-11-30 03:00:00,
2013-11-29 19:43:00,37.0,-99.9,-100.00,SSE,148,1.0,1.0,-999,-99.99,,,-99.99,,2013-11-30 03:43:00,
2013-11-29 19:54:00,37.0,-99.9,-100.00,SSE,148,1.0,1.0,-999,-99.99,,,-99.99,,2013-11-30 03:54:00,
2013-11-29 20:00:00,38.0,-99.9,-100.00,North,352,0.0,2.0,-999,-99.99,,,-99.99,,2013-11-30 04:00:00,
2013-11-29 20:43:00,38.0,-99.9,-100.00,North,352,0.0,2.0,-999,-99.99,,,-99.99,,2013-11-30 04:43:00,
2013-11-29 20:53:00,38.0,-99.9,-100.00,North,352,0.0,2.0,-999,-99.99,,,-99.99,,2013-11-30 04:53:00,
2013-11-29 21:00:00,37.0,-99.9,-100.00,ENE,66,1.0,2.0,-999,-99.99,,,-99.99,,2013-11-30 05:00:00,
2013-11-29 21:43:00,37.0,-99.9,-100.00,ENE,66,1.0,2.0,-999,-99.99,,,-99.99,,2013-11-30 05:43:00,
2013-11-29 21:53:00,37.0,-99.9,-100.00,ENE,66,1.0,2.0,-999,-99.99,,,-99.99,,2013-11-30 05:53:00,